Location: Newark
(50.4348°N, 30.5552°E)
Time: 01:40:16
(UTC+00:00)

Envisat - Pass Details

Date: 12 December 2019
Orbit: 764 x 766 km, 98.1° (Epoch: 23 January)

Event Time Altitude Azimuth Distance (km) Brightness Sun altitude
Rises 05:02:45 0° 13° (NNE) 3,247 6.1 -7.0°
Reaches altitude 10° 05:05:04 10° 13° (NNE) 2,316 5.3 -6.7°
Maximum altitude 05:10:11 86° 286° (WNW) 775 3.0 -6.0°
Drops below altitude 10° 05:15:16 10° 198° (SSW) 2,298 5.7 -5.3°
Sets 05:17:33 0° 198° (SSW) 3,219 6.4 -5.0°
